DRMIKE Weather Reports


time (UTC)temp
C
wind
direction
speed
KPH
gust
KPH
rain 1hr
cm
rain 24hr
cm
rain mn
cm
humidity
%
barometer
mb
20260508014600 11 0 0.0 0.0 0.00 0.13 0.13 51 1007.0
20260508013101 11 0 0.0 0.0 0.00 0.13 0.13 49 1006.8
20260508011614 12 0 0.0 0.0 0.00 0.13 0.13 47 1006.6
20260508010105 12 0 0.0 0.0 0.00 0.13 0.13 46 1006.3
20260508004600 12 0 0.0 0.0 0.00 0.13 0.13 44 1006.0
20260508003100 13 0 0.0 0.0 0.00 0.13 0.13 43 1005.8
20260508001601 13 0 0.0 0.0 0.00 0.13 0.13 40 1005.6
20260508000120 14 0 0.0 3.2 0.00 0.13 0.13 38 1005.6
20260507234601 15 0 0.0 6.4 0.00 0.18 0.13 37 1005.5
20260507233125 15 0 0.0 3.2 0.00 0.18 0.13 37 1005.3
20260507231918 15 0 0.0 11.3 0.00 0.18 0.13 36 1005.2
20260507224600 16 236 0.0 4.8 0.00 0.20 0.13 34 1005.0
20260507223103 16 0 0.0 9.7 0.00 0.20 0.13 34 1004.9
20260507221604 17 0 0.0 14.5 0.00 0.20 0.13 32 1004.7
20260507220059 17 0 1.6 8.0 0.00 0.20 0.13 32 1004.6
20260507214600 18 0 1.6 12.9 0.00 0.20 0.13 32 1004.6
20260507213058 18 334 0.0 6.4 0.00 0.20 0.13 32 1004.4
20260507211611 18 0 0.0 17.7 0.00 0.20 0.13 31 1004.3
20260507204559 19 340 0.0 12.9 0.00 0.23 0.13 32 1004.5
20260507203059 20 0 0.0 8.0 0.00 0.23 0.13 28 1004.4
20260507201601 20 360 0.0 9.7 0.00 0.23 0.13 28 1004.4
20260507200107 20 0 1.6 12.9 0.00 0.23 0.13 31 1004.5
20260507194601 20 335 1.6 12.9 0.00 0.23 0.13 30 1004.6
20260507193103 20 211 0.0 16.1 0.00 0.23 0.13 31 1004.6
20260507191600 21 0 0.0 12.9 0.00 0.23 0.13 29 1004.8
20260507184601 20 49 0.0 27.4 0.00 0.23 0.13 34 1004.8
20260507183100 21 0 0.0 16.1 0.00 0.23 0.13 30 1005.0
20260507181600 21 9 0.0 12.9 0.00 0.23 0.13 33 1005.1
20260507180109 20 207 1.6 14.5 0.00 0.23 0.13 34 1005.3
20260507174636 20 0 3.2 11.3 0.00 0.23 0.13 31 1005.2
20260507173100 20 0 0.0 14.5 0.00 0.23 0.13 39 1005.2
20260507171621 20 0 1.6 16.1 0.00 0.23 0.13 42 1005.4
20260507164601 19 0 1.6 12.9 0.00 0.23 0.13 46 1005.5
20260507163101 19 218 0.0 4.8 0.00 0.23 0.13 46 1005.8
20260507161600 20 330 0.0 12.9 0.00 0.23 0.13 44 1005.9
20260507160118 20 0 0.0 11.3 0.00 0.23 0.13 47 1006.0
20260507154600 20 13 0.0 8.0 0.00 0.23 0.13 44 1006.1
20260507153100 20 49 0.0 6.4 0.00 0.23 0.13 45 1006.2
20260507151601 20 0 0.0 12.9 0.00 0.23 0.13 44 1006.4
20260507150058 19 0 0.0 8.0 0.00 0.23 0.13 49 1006.5
20260507144559 18 0 0.0 9.7 0.00 0.23 0.13 46 1006.7
20260507143119 18 277 0.0 6.4 0.00 0.23 0.13 51 1006.9
20260507141633 17 324 0.0 8.0 0.00 0.23 0.13 52 1006.8
20260507140113 15 314 0.0 4.8 0.00 0.23 0.13 59 1006.7
20260507134612 13 0 0.0 8.0 0.00 0.23 0.13 62 1006.8
20260507133106 12 352 0.0 6.4 0.00 0.23 0.13 69 1006.9
20260507131622 11 0 0.0 1.6 0.00 0.23 0.13 71 1007.1
20260507130108 11 331 3.2 14.5 0.00 0.23 0.13 74 1007.4
20260507124604 10 5 0.0 12.9 0.00 0.23 0.13 82 1007.4
20260507123105 10 0 0.0 9.7 0.00 0.23 0.13 87 1007.3
20260507121601 10 0 0.0 6.4 0.00 0.23 0.13 90 1007.3
20260507120059 10 5 0.0 0.0 0.00 0.23 0.13 91 1007.3
20260507114558 10 0 0.0 1.6 0.00 0.23 0.13 91 1007.0
20260507113134 10 0 0.0 0.0 0.00 0.23 0.13 91 1007.2
20260507111604 10 0 0.0 0.0 0.00 0.23 0.13 91 1007.1
20260507110105 10 0 0.0 0.0 0.03 0.23 0.13 90 1007.3
20260507104614 10 0 0.0 0.0 0.03 0.23 0.13 90 1007.2
20260507103100 10 0 0.0 0.0 0.05 0.23 0.13 90 1006.6
20260507101600 10 0 0.0 0.0 0.10 0.23 0.13 89 1006.9
20260507100101 10 0 0.0 0.0 0.08 0.20 0.10 89 1006.4
20260507094620 10 0 0.0 1.6 0.08 0.20 0.10 88 1006.6
20260507093100 10 0 0.0 0.0 0.05 0.18 0.08 88 1006.6
20260507091600 10 0 0.0 6.4 0.00 0.13 0.03 88 1006.7
20260507090101 10 0 0.0 1.6 0.00 0.13 0.03 88 1006.7
20260507084602 11 0 0.0 0.0 0.03 0.13 0.03 87 1006.4
20260507083100 11 0 0.0 3.2 0.03 0.13 0.03 87 1006.2
20260507081558 11 0 0.0 4.8 0.03 0.13 0.03 86 1006.2
20260507074558 11 0 0.0 6.4 0.00 0.10 0.00 86 1006.2
20260507073110 12 0 0.0 4.8 0.00 0.10 0.00 86 1005.7
20260507071600 12 0 0.0 3.2 0.00 0.10 0.00 87 1005.8
20260507070110 12 0 0.0 3.2 0.00 0.10 0.00 86 1005.5
20260507064606 12 0 0.0 4.8 0.00 0.10 0.00 87 1005.7
20260507063059 13 348 0.0 4.8 0.00 0.10 0.00 88 1005.5
20260507061559 13 0 0.0 4.8 0.00 0.10 0.00 90 1005.6
20260507060100 13 0 0.0 6.4 0.00 0.10 0.00 90 1005.6
20260507054600 13 0 0.0 3.2 0.00 0.10 0.00 90 1005.8
20260507053100 13 0 0.0 6.4 0.00 0.10 0.00 90 1005.6
20260507051608 14 0 0.0 6.4 0.00 0.10 0.00 91 1005.6
20260507050110 14 0 0.0 6.4 0.00 0.10 0.00 91 1005.7
20260507044600 15 0 0.0 8.0 0.00 0.10 0.00 93 1005.4
20260507043100 15 271 0.0 4.8 0.00 0.10 0.00 94 1005.6
20260507041601 15 0 0.0 6.4 0.00 0.10 0.00 94 1005.4
20260507040106 15 0 0.0 9.7 0.00 0.10 0.00 94 1005.5
20260507034605 15 0 0.0 4.8 0.00 0.10 0.10 94 1005.5
20260507033103 15 0 0.0 6.4 0.00 0.10 0.10 94 1005.4
20260507031604 15 0 0.0 0.0 0.00 0.10 0.10 94 1005.0
20260507024601 15 0 0.0 8.0 0.00 0.10 0.10 94 1005.0
20260507023057 15 0 0.0 11.3 0.00 0.10 0.10 94 1005.2
20260507021616 15 0 0.0 6.4 0.00 0.10 0.10 94 1005.0